Location: ??????????
(54.8537°N, 38.8755°E)
Time: 21:36:21
(UTC+00:00)

Tiros 1 - Pass Details

Date: 22 September 2024
Orbit: 623 x 654 km, 48.4° (Epoch: 09 October)

Event Time Altitude Azimuth Distance (km) Brightness Sun altitude
Rises 10:51:13 0° 219° (SW) 2,894 11.6 31.9°
Reaches altitude 10° 10:53:55 10° 205° (SSW) 1,988 11.2 31.7°
Maximum altitude 10:57:25 22° 154° (SSE) 1,364 9.5 31.4°
Drops below altitude 10° 11:00:57 10° 104° (ESE) 1,995 9.6 31.2°
Sets 11:03:40 0° 89° (E) 2,906 10.2 31.0°
